sat.trackr.live / text

‹ back to catalog

FLOCK 4G-11

NORAD 62629 · 2025-009W

PAYLOAD ACTIVE UNKNOWN

§ Identity

Operator
Country
US
Launch date
2025-01-14
Launch site
AFWTR
Launch vehicle
Mass (kg)
RCS (m²)

Purposes: earth_obs

External: N2YO · Heavens-Above · Gunter

§ Orbital elements

Epoch: 2026-05-25T04:53:09.713760Z

Period
94.19 min
Inclination
97.3923°
Eccentricity
0.0003799
Mean motion
15.28793025 rev/d
Perigee alt
476.8 km
Apogee alt
482.0 km
Semi-major
6,857.6 km
B*
3.7108e-4
RAAN
226.7793°
Arg perigee
67.3319°
Mean anomaly
292.8323°
Rev number
7,540

§ Raw data

FLOCK 4G-111 62629U 25009W   26145.20358465  .00010315  00000+0  37108-3 0  99932 62629  97.3923 226.7793 0003799  67.3319 292.8323 15.28793025 75400

JSON: /api/v1/satellites/62629 · /tle

For live sub-satellite position, see the globe view (requires WebGL).

§ Visibility from observer

Set your observer location to see the next 7 days of passes ≥ 10°. The values pass through the URL so the page stays shareable.

No JS? Fill the form by hand. The geolocation button needs JavaScript.